Theta_e
309 312 314 311 309 305 297 296 300 299 300 301 301 300 298 300 300 300 300 299 298 298 299 299 300 300 301 300 300 299 300 300 301 299 299 299 301 301 300 299 302 303 305 303
310 310 311 310 308 304 299 298 300 300 299 297 295 298 299 299 299 299 299 298 299 300 299 299 300 300 300 299 298 299 300 300 298 299 298 301 301 302 302 303 304 302 303 304
309 307 309 309 307 302 298 298 298 299 301 302 297 300 300 299 298 298 299 300 299 298 299 299 300 299 300 298 299 300 302 300 300 299 299 298 301 301 301 303 304 302 303 303
308 309 308 306 302 298 298 298 298 298 299 298 299 299 300 299 299 299 300 300 300 299 300 300 299 299 298 298 302 301 300 300 300 300 300 300 300 301 300 303 303 304 305 306
308 307 305 303 298 299 299 300 299 300 300 301 299 300 298 299 299 299 300 300 300 299 299 298 299 298 297 298 299 299 299 297 298 301 301 301 302 300 300 303 302 302 304 305
306 306 303 302 301 299 300 301 301 301 299 297 298 298 300 299 299 299 299 299 298 299 299 298 298 298 298 298 299 299 300 301 302 302 301 302 302 300 300 301 300 301 302 301
304 302 301 299 297 300 300 301 300 300 298 298 299 300 299 298 299 299 298 299 298 299 299 299 299 298 298 297 297 298 300 301 302 302 302 302 299 299 298 300 299 299 299 299
301 300 298 295 298 301 300 300 300 300 297 299 300 299 299 299 299 298 298 298 298 299 299 297 300 299 301 301 300 298 299 300 302 298 302 301 301 299 298 299 300 297 297 298
298 296 295 294 300 301 300 300 300 300 299 298 299 299 299 297 296 297 298 299 299 298 296 298 301 298 300 300 299 297 296 296 295 299 302 302 299 297 297 298 300 298 297 297
295 292 295 299 301 300 301 301 300 299 297 297 298 297 297 297 296 296 298 298 297 298 291 294 297 300 300 300 294 290 294 292 291 298 288 293 297 297 297 300 297 297 296 295
293 297 299 300 300 300 301 300 299 300 298 297 298 298 298 298 298 296 297 296 295 293 293 293 296 297 297 295 296 292 290 294 290 292 288 293 296 297 297 295 296 296 296 295
295 298 299 299 299 301 300 299 299 299 298 297 298 298 299 299 299 298 297 295 295 295 290 288 291 296 292 295 295 294 294 291 292 293 293 295 297 295 295 295 295 295 295 294
297 298 298 299 299 300 299 299 298 298 297 297 298 298 298 298 299 299 298 298 298 297 296 292 291 295 293 290 294 293 292 299 299 295 295 297 295 297 295 295 295 294 293 292
297 298 298 298 298 299 298 298 298 298 297 296 297 297 297 297 298 298 298 298 297 297 296 294 290 294 295 295 294 293 292 298 298 294 296 296 296 296 296 295 295 293 292 290
297 296 295 295 297 299 299 298 297 297 297 296 297 296 296 295 295 297 298 298 297 296 296 289 291 294 294 293 294 289 297 296 294 293 295 294 295 295 294 294 293 291 290 289
295 294 293 294 296 298 299 297 297 297 297 297 294 297 297 296 295 297 297 297 297 295 295 295 296 296 295 290 294 297 299 298 297 297 296 295 294 293 292 291 290 289 288 286
295 294 294 294 294 294 294 294 296 297 297 297 293 295 297 297 296 296 296 296 296 296 296 296 295 296 297 291 296 297 298 298 297 296 296 294 292 292 290 289 288 287 285 284
294 295 295 295 294 294 294 294 295 295 295 297 289 293 296 296 296 296 296 296 297 296 296 296 295 295 294 293 295 297 297 297 296 295 294 294 292 290 289 288 286 285 284 283
293 295 294 294 294 293 294 294 294 295 294 292 291 293 293 296 296 297 297 296 291 295 292 294 294 293 295 295 297 296 295 296 294 292 291 290 289 288 287 286 285 284 282 282
293 294 294 294 293 293 294 294 294 294 293 294 292 294 293 296 295 296 296 297 294 293 295 295 291 294 296 297 297 295 293 294 294 292 289 288 287 286 285 284 283 282 281 280
293 293 294 294 294 293 293 292 291 292 290 293 294 295 294 297 294 297 295 293 294 293 295 294 295 296 293 292 294 293 293 293 291 289 288 287 286 285 285 283 282 280 280 279
293 294 294 293 292 293 289 284 290 293 294 292 293 295 295 297 298 296 294 293 294 297 296 294 295 291 291 291 291 291 290 289 288 287 287 286 285 284 283 282 281 280 279 278
293 293 293 292 291 286 284 287 290 290 293 293 294 290 296 298 297 292 286 288 291 295 297 297 293 291 289 290 292 289 288 288 287 287 286 286 284 283 282 281 280 279 278 278
293 292 289 287 288 288 291 292 293 293 295 295 296 295 297 297 292 287 287 289 292 291 291 295 289 292 291 291 290 289 288 287 287 286 285 284 282 281 280 279 278 278 278 278
293 291 287 287 290 293 293 294 295 295 296 297 296 294 295 287 288 290 290 289 292 293 290 287 291 292 291 290 289 288 287 287 286 285 283 282 281 280 279 279 278 277 277 277
293 293 291 292 294 294 296 295 294 295 296 297 296 288 285 287 289 291 290 291 290 288 286 291 291 290 290 289 288 287 287 286 285 283 282 281 280 279 279 278 277 277 277 276
293 291 292 292 294 293 295 295 295 296 298 289 290 287 290 291 291 292 291 288 286 292 292 291 290 291 290 289 288 287 286 285 283 282 281 280 280 279 278 278 277 276 276 276
Wind_Speed
46 56 58 53 48 39 36 27 3 27 25 6 4 4 5 6 4 4 3 5 5 3 4 4 3 4 4 2 2 2 1 3 2 6 6 5 4 4 4 2 3 3 3 5
55 63 59 52 47 45 41 22 8 24 27 3 2 3 3 4 3 3 3 3 4 3 4 5 3 4 6 5 1 3 3 1 2 3 4 2 1 2 2 1 3 5 2 4
62 57 64 52 46 43 35 15 4 5 13 5 5 5 4 5 6 4 7 5 8 4 3 4 4 3 2 5 1 2 2 2 4 5 4 2 4 4 5 4 3 5 6 14
65 63 52 49 50 44 35 12 6 13 7 5 4 4 3 10 5 4 6 3 4 6 4 3 4 2 2 3 4 4 2 3 4 9 9 7 8 6 5 3 5 5 7 4
57 56 54 50 57 47 28 12 7 9 12 15 7 3 5 7 4 5 3 7 7 5 5 5 6 4 2 2 3 2 2 2 3 5 7 6 5 2 6 3 3 6 9 4
58 55 52 50 49 45 22 10 15 19 8 6 5 5 6 8 9 4 11 12 6 6 5 8 5 5 5 3 3 2 2 1 2 3 4 3 2 0 3 7 3 5 4 7
56 51 43 49 53 38 22 20 18 8 3 6 5 8 9 12 5 8 11 14 6 6 9 7 5 4 4 5 6 8 4 1 2 3 4 2 2 1 3 1 2 4 6 9
42 42 51 48 48 28 18 25 9 7 3 7 10 16 11 15 18 8 10 6 9 10 7 3 4 4 2 2 4 4 5 1 2 1 2 1 3 1 3 4 2 7 9 9
50 47 44 45 39 33 15 18 12 10 11 1 17 14 17 10 5 4 6 11 9 5 3 3 3 3 2 2 2 5 5 3 3 2 3 3 1 4 9 7 3 9 9 10
41 40 41 38 32 25 22 15 17 14 10 9 21 5 9 12 6 4 4 5 3 3 2 3 2 2 3 2 3 2 2 2 3 1 3 6 3 13 9 2 2 12 9 11
40 40 37 31 29 21 20 18 19 12 10 12 13 19 15 14 12 5 9 5 2 3 4 3 2 2 2 2 3 4 4 2 2 2 1 5 6 3 1 4 8 12 7 9
37 34 31 28 25 20 19 20 16 22 16 23 23 19 15 11 10 17 5 5 3 4 4 1 2 2 2 3 1 2 1 5 3 6 4 2 1 2 3 5 7 10 10 12
32 30 28 27 23 20 20 26 27 31 34 23 22 19 16 12 12 12 7 4 4 5 5 7 2 3 3 2 3 1 2 5 3 2 2 3 4 3 4 4 7 7 9 12
29 27 25 23 22 21 24 29 23 26 15 7 7 13 12 8 7 7 5 11 13 13 6 4 2 3 4 2 2 3 4 7 3 4 4 3 7 6 5 7 6 7 10 12
26 23 21 22 25 25 25 25 23 18 6 7 10 19 14 11 7 8 10 13 16 8 4 3 1 3 2 1 1 2 7 5 4 4 5 3 1 4 3 2 5 9 12 14
25 22 21 23 26 24 22 11 10 15 38 13 3 8 10 12 12 13 13 12 10 5 4 2 2 2 2 2 2 4 8 5 3 2 5 3 3 1 1 4 7 11 13 14
24 23 23 24 23 26 9 9 21 21 13 8 5 3 5 10 11 10 9 8 5 4 3 2 2 1 5 2 3 2 6 6 6 4 2 3 6 3 3 7 10 11 12 13
26 24 22 17 17 18 24 22 20 14 10 7 4 1 5 10 5 4 4 4 4 2 3 3 2 2 1 2 7 4 9 9 6 3 4 6 3 2 7 9 10 12 14 17
26 24 23 21 13 8 16 18 12 8 7 6 3 4 4 9 4 4 3 2 2 2 2 1 4 1 4 6 6 12 14 8 7 4 2 1 2 4 7 10 12 14 16 19
28 24 7 6 10 21 13 5 4 4 6 5 4 4 2 8 3 3 3 1 1 1 2 4 2 3 8 5 6 12 9 6 3 3 2 3 3 4 7 10 13 14 16 18
15 4 5 20 11 4 5 4 5 3 4 3 4 5 5 5 4 3 2 2 1 1 2 3 2 3 3 8 12 10 6 2 3 3 2 0 3 6 8 10 11 13 15 17
5 13 18 6 4 5 5 1 2 2 3 4 7 6 6 6 4 5 2 2 1 1 5 1 2 1 9 15 12 9 5 4 3 3 2 4 6 8 9 10 11 13 14 14
24 6 4 2 4 7 4 3 2 2 6 7 9 2 4 4 3 6 3 4 3 3 1 3 2 6 12 14 10 9 6 3 2 2 4 6 7 8 10 10 10 11 12 12
4 4 4 2 2 1 2 2 3 4 11 19 18 7 3 3 3 2 4 2 2 2 1 4 1 9 13 12 11 7 5 3 0 3 5 7 7 8 10 10 10 11 11 12
4 3 3 1 2 3 4 6 7 8 22 15 12 8 3 3 4 1 3 4 2 4 4 2 2 11 13 12 10 6 4 2 2 4 7 7 8 8 9 12 14 11 9 11
3 4 4 4 6 3 8 11 10 15 16 11 6 3 4 1 3 3 4 5 4 4 3 5 7 11 12 11 7 4 2 3 3 5 6 7 7 8 10 14 13 10 9 11
3 4 8 6 10 6 5 8 7 15 8 2 4 4 5 3 2 0 3 4 3 3 5 6 9 10 10 8 6 4 3 3 3 4 5 6 7 7 9 11 11 11 11 13
Wind_Direction
215 210 212 204 190 175 155 153 121 166 168 141 204 175 183 134 140 106 93 85 101 136 139 125 132 146 129 124 281 90 143 135 239 258 272 205 153 180 145 124 306 244 250 281
206 206 206 196 183 177 158 142 105 162 170 158 219 225 107 93 125 122 110 112 123 117 126 109 116 118 163 41 165 160 136 76 342 352 351 45 153 218 313 241 226 219 244 273
197 194 199 187 179 166 155 137 126 156 198 247 171 143 138 115 82 75 89 93 99 105 91 52 137 122 130 327 102 164 122 196 211 211 223 157 305 294 307 264 253 282 244 289
195 198 190 178 166 158 156 158 169 167 183 222 195 119 126 139 134 108 121 65 162 143 137 114 115 136 20 24 61 77 109 242 234 262 271 266 267 282 302 278 280 274 317 269
195 189 183 172 163 161 171 148 141 146 161 171 138 122 164 146 109 123 157 142 141 137 135 157 164 136 171 173 73 86 30 261 11 295 291 247 247 319 323 277 341 297 307 260
183 182 175 170 171 164 168 153 140 151 152 144 134 178 157 153 126 54 163 140 119 102 155 147 141 178 169 133 112 112 101 305 317 275 333 311 236 287 294 315 59 307 341 339
177 167 170 168 163 170 174 164 150 121 131 155 146 139 128 136 146 130 141 135 103 128 130 135 103 132 193 209 234 178 152 198 246 288 314 238 192 142 316 354 66 354 332 349
165 171 161 167 172 167 172 163 141 110 104 129 116 128 120 114 113 104 114 102 114 140 131 88 87 15 61 192 163 172 187 134 283 246 278 34 151 336 326 305 139 19 345 345
154 158 166 168 169 179 169 159 140 128 123 223 147 125 137 129 112 66 90 113 131 138 87 80 120 166 157 188 35 86 89 58 132 349 287 262 179 288 313 265 234 10 349 348
158 163 164 167 173 177 169 164 149 145 105 113 141 122 138 140 108 99 116 140 96 90 69 81 120 154 147 187 174 233 35 23 147 252 246 287 287 314 338 270 310 334 351 348
151 155 159 159 169 169 163 160 153 148 103 103 130 140 135 130 132 134 157 96 11 54 73 119 172 129 199 106 183 171 149 157 219 87 42 294 353 347 77 293 323 330 329 346
152 153 153 152 155 159 172 147 146 134 112 113 115 113 118 146 150 136 121 123 127 146 92 50 97 101 61 129 243 359 4 178 195 175 224 199 293 228 296 305 321 349 346 338
146 148 153 156 152 154 165 142 137 129 107 92 106 92 97 120 136 148 124 130 125 115 107 144 136 110 136 147 245 154 269 199 234 25 253 234 233 248 304 331 330 338 336 338
140 147 152 155 153 146 154 141 131 127 106 92 82 105 103 97 127 131 134 149 128 122 103 86 120 123 187 203 197 170 199 158 224 262 259 278 234 261 309 311 297 321 334 339
138 140 141 146 150 150 154 142 138 136 110 136 118 101 91 83 107 133 121 140 135 118 85 75 162 136 129 210 62 261 186 189 170 228 190 180 229 301 324 276 314 330 334 336
135 131 133 138 146 151 159 104 102 113 117 105 91 100 119 100 104 121 125 131 121 106 110 132 156 153 160 123 243 260 198 187 177 154 170 155 184 195 334 339 337 330 332 336
136 131 131 135 138 150 140 133 141 140 117 99 92 80 121 143 120 109 111 111 118 115 131 150 151 157 187 150 226 278 186 168 151 156 206 169 209 253 313 329 330 330 332 335
139 132 129 126 126 126 107 115 139 132 101 95 101 80 107 160 128 108 129 148 147 111 124 140 158 155 196 255 231 198 173 169 168 192 232 256 204 268 317 330 334 337 341 343
140 131 121 107 88 77 103 105 114 95 87 105 94 128 174 161 103 99 117 144 57 130 86 220 142 198 223 226 213 183 179 181 167 159 174 192 276 314 327 334 339 346 348 346
136 129 93 79 103 113 107 82 72 52 48 64 87 117 118 146 115 110 114 80 119 108 227 149 143 255 238 210 213 178 177 167 201 199 209 265 292 331 337 345 344 347 349 348
132 86 69 125 114 84 65 71 55 33 47 65 100 112 120 135 120 139 187 172 21 103 255 145 244 265 154 160 159 161 165 206 210 217 193 341 341 341 338 337 341 347 352 354
119 122 118 97 73 66 75 7 9 48 136 129 121 125 107 115 133 109 166 134 169 200 149 165 255 306 159 160 153 151 151 138 132 112 46 2 349 346 346 346 342 348 351 354
120 90 80 34 21 49 103 152 320 100 165 148 142 108 114 114 100 80 92 83 192 132 206 239 224 152 174 171 172 162 156 144 113 44 358 349 348 348 349 347 343 342 348 346
65 74 57 78 353 283 190 150 132 118 143 135 129 99 103 103 68 136 89 244 71 38 338 238 236 183 185 186 176 175 170 181 300 347 345 346 348 357 358 359 357 350 349 352
74 72 100 143 103 85 96 94 94 97 140 127 106 79 95 26 89 22 94 40 214 196 230 236 243 184 187 184 186 192 201 235 313 334 349 351 352 355 359 358 355 351 348 350
64 68 91 110 116 66 92 92 91 128 136 111 79 92 58 354 126 89 200 143 221 245 212 222 178 177 183 186 195 200 240 289 316 341 353 356 358 351 352 352 350 358 357 355
63 62 93 90 114 114 91 91 104 137 133 103 111 84 192 129 67 247 185 200 215 201 205 172 179 180 181 184 201 226 250 276 311 349 4 11 1 345 348 344 355 355 356 351